TimePDT,TemperatureF,Dew PointF,Humidity,Sea Level PressureIn,VisibilityMPH,Wind Direction,Wind SpeedMPH,Gust SpeedMPH,PrecipitationIn,Events,Conditions,WindDirDegrees,DateUTC
12:56 AM,75.0,37.0,25,29.88,10.0,South,3.5,-,N/A,,Clear,190,2013-07-20 07:56:00
1:56 AM,73.0,37.0,27,29.88,10.0,Calm,Calm,-,N/A,,Clear,0,2013-07-20 08:56:00
2:56 AM,71.1,37.9,30,29.89,10.0,Calm,Calm,-,N/A,,Clear,0,2013-07-20 09:56:00
3:56 AM,66.9,41.0,39,29.89,10.0,Calm,Calm,-,N/A,,Clear,0,2013-07-20 10:56:00
4:56 AM,66.9,41.0,39,29.90,10.0,Calm,Calm,-,N/A,,Clear,0,2013-07-20 11:56:00
5:56 AM,64.9,44.1,47,29.91,10.0,Calm,Calm,-,N/A,,Clear,0,2013-07-20 12:56:00
6:56 AM,68.0,46.0,45,29.91,10.0,ENE,4.6,-,N/A,,Clear,60,2013-07-20 13:56:00
7:56 AM,70.0,46.0,42,29.92,10.0,North,4.6,-,N/A,,Clear,10,2013-07-20 14:56:00
8:56 AM,75.0,46.9,37,29.92,10.0,Variable,3.5,-,N/A,,Clear,0,2013-07-20 15:56:00
9:56 AM,79.0,45.0,30,29.91,10.0,Variable,3.5,-,N/A,,Clear,0,2013-07-20 16:56:00
10:56 AM,86.0,44.1,23,29.89,10.0,Variable,3.5,-,N/A,,Clear,0,2013-07-20 17:56:00
11:56 AM,90.0,39.9,17,29.87,10.0,Calm,Calm,-,N/A,,Clear,0,2013-07-20 18:56:00
12:56 PM,93.9,41.0,16,29.85,10.0,Variable,3.5,-,N/A,,Clear,0,2013-07-20 19:56:00
1:56 PM,97.0,30.9,10,29.82,10.0,Calm,Calm,-,N/A,,Clear,0,2013-07-20 20:56:00
2:56 PM,99.0,35.1,11,29.81,10.0,Variable,5.8,-,N/A,,Clear,0,2013-07-20 21:56:00
3:56 PM,100.0,36.0,11,29.78,10.0,West,9.2,-,N/A,,Clear,280,2013-07-20 22:56:00
4:56 PM,99.0,35.1,11,29.76,10.0,North,5.8,-,N/A,,Clear,360,2013-07-20 23:56:00
5:56 PM,98.1,34.0,11,29.74,10.0,North,8.1,-,N/A,,Clear,10,2013-07-21 00:56:00
6:56 PM,97.0,33.1,11,29.74,10.0,NNW,9.2,-,N/A,,Clear,330,2013-07-21 01:56:00
7:56 PM,93.0,33.1,12,29.74,10.0,NW,5.8,-,N/A,,Clear,310,2013-07-21 02:56:00
8:56 PM,88.0,33.1,14,29.75,10.0,Calm,Calm,-,N/A,,Clear,0,2013-07-21 03:56:00
9:56 PM,87.1,30.9,13,29.76,10.0,Calm,Calm,-,N/A,,Clear,0,2013-07-21 04:56:00
10:56 PM,79.0,33.1,19,29.76,10.0,South,3.5,-,N/A,,Clear,180,2013-07-21 05:56:00
11:56 PM,77.0,36.0,23,29.76,10.0,SSW,5.8,-,N/A,,Clear,210,2013-07-21 06:56:00